[[{"header":{"parameterUnit":"m.s-1","parameterCategory":1,"la1":30.2991,"la2":30.254,"lo1":-89.0895,"lo2":-89.0444,"dy":0.0017,"dx":0.0017,"nx":28,"ny":28,"refTime":"2024-10-20T03:00:00:Z","depth":0,"parameterNumber":2,"parameterNumberName":"U-component_of_WINDS"},"data":[0,0,0,0,0,0,0,0,0,0,0,0,0,0,0,0,0,0,0,0,0,0,0,0,0,0,0,0,0,0,0,0,0,0,0,0,0,0,0,0,0,0,0,0,0,0,0,0,0,0,0,0,0,0,0,0,0,0,-2.7033,-2.7034,0,-2.709,-2.709,-2.7091,-2.6979,-2.6976,-2.6972,-2.6969,-2.7031,-2.7035,-2.704,0,0,0,0,0,0,0,0,0,0,0,0,0,-2.6831,-2.6836,-2.7033,-2.7034,-2.7034,-2.709,-2.709,-2.7091,-2.698,-2.6976,-2.6971,-2.6967,-2.7029,-2.7035,-2.7041,0,0,0,0,0,0,0,0,0,0,0,0,0,-2.6907,-2.6837,-2.7033,-2.6986,-2.6982,-2.7089,-2.709,-2.7091,-2.6981,-2.6975,-2.697,-2.6965,-2.7027,-2.7034,-2.7042,-2.7199,0,0,-2.7065,-2.7068,0,0,0,0,0,0,0,0,-2.6903,-2.6914,-2.6992,-2.6989,-2.6985,-2.7022,-2.7042,-2.7128,-2.6982,-2.6982,-2.6968,-2.6962,-2.7032,-2.7039,-2.7062,-2.7202,-2.7205,-2.7066,-2.707,-2.7074,-2.7076,0,0,0,0,0,0,0,-2.6898,-2.6911,-2.7055,-2.6993,-2.6989,-2.6962,-2.6967,-2.7058,-2.7037,-2.6981,-2.6973,-2.6981,-2.7029,-2.7055,-2.7063,-2.7206,-2.7065,-2.7072,-2.7077,-2.708,-2.7478,-2.7484,0,0,0,0,0,0,-2.6898,-2.6908,-2.7054,-2.7057,-2.6929,-2.6971,-2.6976,-2.7016,-2.7036,-2.7034,-2.6986,-2.6976,-2.7045,-2.7054,-2.7064,-2.7251,-2.7074,-2.7081,-2.7085,-2.7472,-2.7479,-2.7486,0,0,0,0,0,0,-2.6894,-2.6912,-2.7051,-2.698,-2.6996,-2.698,-2.7026,-2.702,-2.7045,-2.7039,-2.7036,-2.7016,-2.7041,-2.7054,-2.7166,-2.7252,-2.7084,-2.7091,-2.7465,-2.7474,-2.7483,-2.7625,0,0,0,0,0,0,-2.6889,-2.6911,-2.6971,-2.6982,-2.7,-2.7152,-2.7031,-2.7025,-2.7058,-2.7045,-2.7066,-2.7065,-2.7037,-2.7156,-2.7174,-2.7259,-2.7097,-2.7457,-2.7469,-2.748,-2.7613,-2.7638,-2.766,0,0,0,0,0,-2.6882,-2.7009,-2.6974,-2.6992,-2.7074,-2.7157,-2.7168,-2.7133,-2.7065,-2.7125,-2.7121,-2.7064,-2.7238,-2.7168,-2.7188,-2.7277,-2.7452,-2.7466,-2.7479,-2.7603,-2.7633,-2.7659,0,0,0,0,0,0,-2.7009,-2.701,-2.6971,-2.7106,-2.7132,-2.7138,-2.7213,-2.7166,-2.7213,-2.72,-2.7155,-2.7161,-2.7283,-2.729,-2.7212,-2.743,-2.7334,-2.7352,-2.7421,-2.745,-2.7473,-2.747,-2.7103,0,0,0,0,0,-2.7053,-2.712,-2.7117,-2.7236,-2.7251,-2.723,-2.7265,-2.7235,-2.7262,-2.7273,-2.7277,-2.7306,-2.7367,-2.7408,-2.7464,-2.7612,-2.7616,-2.7683,-2.7706,-2.7725,-2.7743,-2.7822,-2.7853,-2.753,-2.753,-2.753,0,0,-2.7144,-2.7152,-2.7198,-2.7262,-2.7279,-2.735,-2.724,-2.732,-2.7373,-2.7285,-2.7392,-2.7396,-2.7425,-2.7556,-2.7614,-2.7566,-2.7832,-2.7743,-2.7758,-2.7765,-2.7839,-2.787,-2.7897,-2.7539,-2.7538,-2.7536,0,0,-2.7347,-2.736,-2.7461,-2.7479,-2.7506,-2.7491,-2.7515,-2.7528,-2.7527,-2.7633,-2.7569,-2.7631,-2.7737,-2.776,-2.7786,-2.7997,-2.7946,-2.8016,-2.8139,-2.8217,-2.8243,-2.8265,-2.8342,-2.837,-2.8032,-2.8033,-2.8033,0,-2.7458,-2.7562,-2.7519,-2.7604,-2.7634,-2.7555,-2.7658,-2.7678,-2.7723,-2.7746,-2.7691,-2.7822,-2.7836,-2.7972,-2.8024,-2.8046,-2.8074,-2.8015,-2.8242,-2.8264,-2.8285,-2.8358,-2.8387,-2.8041,-2.804,-2.8039,-2.8039,0,-2.7698,-2.7771,-2.7849,-2.7893,-2.7931,-2.8025,-2.7997,-2.8041,-2.8008,-2.7999,-2.8108,-2.8121,-2.8179,-2.8208,-2.8177,-2.834,-2.831,-2.8249,-2.8153,-2.8325,-2.8393,-2.842,-2.8053,-2.805,-2.8048,-2.8046,0,0,-2.7986,-2.8003,-2.8033,-2.8051,-2.8074,-2.813,-2.8219,-2.8274,-2.8315,-2.8347,-2.8422,-2.8513,-2.8457,-2.8486,-2.8456,-2.8525,-2.8693,-2.8455,-2.8455,-2.8501,-2.8876,-2.8923,-2.8956,-2.8657,-2.8663,-2.8667,-2.8874,0,-2.8189,-2.8343,-2.8306,-2.8459,-2.8526,-2.8451,-2.8529,-2.8552,-2.8546,-2.8603,-2.8595,-2.8661,-2.8581,-2.8598,-2.8662,-2.8659,-2.8768,-2.8643,-2.873,-2.8733,-2.8728,-2.8991,-2.9042,-2.9237,-2.89,-2.8904,-2.8908,0,-2.8448,-2.8489,-2.8648,-2.8659,-2.8686,-2.8757,-2.8804,-2.8859,-2.8884,-2.8874,-2.8906,-2.8862,-2.8952,-2.8852,-2.8976,-2.8892,-2.8924,-2.8928,-2.8934,-2.8944,-2.8833,-2.9011,-2.9298,-2.9329,-2.8949,-2.8945,-2.8942,0,-2.8645,-2.874,-2.8847,-2.8865,-2.8881,-2.8933,-2.8942,-2.896,-2.8995,-2.9037,-2.9059,-2.9111,-2.914,-2.9181,-2.9153,-2.9082,-2.9283,-2.918,-2.9279,-2.928,-2.9327,-2.9326,-2.9628,-2.9344,-2.9343,-2.9343,-2.9342,0,-2.8878,-2.8979,-2.8936,-2.9003,-2.9114,-2.907,-2.9181,-2.9182,-2.9199,-2.9265,-2.9202,-2.9266,-2.9223,-2.9284,-2.9262,-2.9369,-2.9382,-2.9378,-2.9372,-2.9385,-2.9386,-2.9409,-2.9396,-2.9351,-2.9349,-2.9347,-2.9346,0,-2.9119,-2.9094,-2.9207,-2.9211,-2.9214,-2.9296,-2.93,-2.9363,-2.935,-2.9435,-2.9452,-2.9433,-2.9501,-2.9476,-2.9548,-2.9533,-2.9671,-2.9645,-2.9663,-2.9658,-2.9759,-2.9751,-3.0089,-3.0132,-2.9818,-2.9821,-2.9823,0,-2.927,-2.9346,-2.9358,-2.9397,-2.941,-2.9474,-2.9509,-2.9468,-2.9508,-2.954,-2.9599,-2.9661,-2.9709,-2.982,-2.9814,-2.9869,-2.9847,-2.9961,-2.9855,-2.9866,-2.9851,-2.9849,-2.9857,-2.9984,-2.9987,-2.999,-2.9992,0,-2.9543,-2.9527,-2.9579,-2.9628,-2.9671,-2.9708,-2.9739,-2.9775,-2.9735,-2.9783,-2.9851,-2.9887,-2.996,-3.0023,-3.0072,-3.0082,-3.0033,-3.0025,-3.0052,-3.0068,-3.0076,-3.0076,-2.9724,-3.0019,-3.0016,-3.0014,-3.0013,-3.0012,-2.9746,-2.981,-2.9828,-2.9889,-2.9907,-2.9938,-2.9997,-2.9991,-3.0046,-3.0102,-3.0073,-3.0153,-3.0175,-3.0235,-3.0252,-3.0314,-3.027,-3.0307,-3.0318,-3.0328,-3.0343,-3.0064,-3.0322,-3.0321,-3.0321,-3.032,-3.032,0,-3.0017,-3.0025,-3.0081,-3.0126,-3.0174,-3.0119,-3.015,-3.0195,-3.0265,-3.0288,-3.0336,-3.0414,-3.0474,-3.0472,-3.0528,-3.0578,-3.0557,-3.0594,-3.0592,-3.0596,-3.0378,-3.0351,-3.0611,-3.0611,-3.0611,-3.0611,-3.0611,-3.0611,-3.0165,-3.0271,-3.0256,-3.0371,-3.0377,-3.0454,-3.0476,-3.0504,-3.0523,-3.0613,-3.0662,-3.0659,-3.0673,-3.0729,-3.0782,-3.078,-3.0805,-3.0852,-3.0842,-3.0639,-3.0611,-3.0583,-3.0558,-3.0857,-3.0857,-3.1054,-3.1056,-3.1058]},{"header":{"parameterUnit":"m.s-1","parameterCategory":1,"la1":30.2991,"la2":30.254,"lo1":-89.0895,"lo2":-89.0444,"dy":0.0017,"dx":0.0017,"nx":28,"ny":28,"refTime":"2024-10-20T03:00:00:Z","depth":0,"parameterNumber":3,"parameterNumberName":"V-component_of_WINDS"},"data":[0,0,0,0,0,0,0,0,0,0,0,0,0,0,0,0,0,0,0,0,0,0,0,0,0,0,0,0,0,0,0,0,0,0,0,0,0,0,0,0,0,0,0,0,0,0,0,0,0,0,0,0,0,0,0,0,0,0,-3.3198,-3.3198,0,-3.3202,-3.3202,-3.3202,-3.3144,-3.3143,-3.3141,-3.314,-3.3144,-3.3145,-3.3147,0,0,0,0,0,0,0,0,0,0,0,0,0,-3.314,-3.3141,-3.3198,-3.3198,-3.3198,-3.3202,-3.3202,-3.3202,-3.3145,-3.3143,-3.3141,-3.3139,-3.3143,-3.3145,-3.3147,0,0,0,0,0,0,0,0,0,0,0,0,0,-3.3156,-3.3141,-3.3198,-3.317,-3.3167,-3.3202,-3.3202,-3.3202,-3.3145,-3.3143,-3.314,-3.3138,-3.3143,-3.3145,-3.3147,-3.3209,0,0,-3.3154,-3.3156,0,0,0,0,0,0,0,0,-3.3156,-3.3159,-3.3174,-3.3172,-3.3169,-3.317,-3.3183,-3.3204,-3.3146,-3.3154,-3.314,-3.3137,-3.3155,-3.3156,-3.3162,-3.3209,-3.3209,-3.3155,-3.3156,-3.3157,-3.3158,0,0,0,0,0,0,0,-3.3154,-3.3158,-3.32,-3.3174,-3.3171,-3.3157,-3.3157,-3.3187,-3.3167,-3.3153,-3.3149,-3.315,-3.3153,-3.316,-3.3161,-3.3209,-3.3155,-3.3157,-3.3158,-3.3159,-3.3305,-3.3308,0,0,0,0,0,0,-3.3157,-3.3158,-3.3199,-3.32,-3.3156,-3.316,-3.3159,-3.3172,-3.3167,-3.3164,-3.3152,-3.3147,-3.3157,-3.3159,-3.3161,-3.3231,-3.3157,-3.3159,-3.3161,-3.3303,-3.3306,-3.3308,0,0,0,0,0,0,-3.3156,-3.3162,-3.3199,-3.3178,-3.3181,-3.3163,-3.3178,-3.3174,-3.318,-3.3166,-3.3162,-3.3162,-3.3155,-3.3158,-3.3197,-3.3231,-3.316,-3.3163,-3.33,-3.3304,-3.3307,-3.3373,0,0,0,0,0,0,-3.3155,-3.3162,-3.3185,-3.3178,-3.3183,-3.3236,-3.318,-3.3175,-3.3185,-3.3178,-3.3175,-3.3172,-3.3153,-3.3194,-3.3199,-3.3233,-3.3164,-3.3297,-3.3302,-3.3306,-3.3368,-3.3379,-3.3388,0,0,0,0,0,-3.3153,-3.3204,-3.3187,-3.3192,-3.3212,-3.3238,-3.324,-3.3217,-3.3188,-3.3211,-3.3201,-3.3172,-3.3226,-3.3198,-3.3204,-3.3239,-3.3295,-3.33,-3.3306,-3.3363,-3.3376,-3.3388,0,0,0,0,0,0,-3.3216,-3.3203,-3.3183,-3.3234,-3.3237,-3.3228,-3.3256,-3.3232,-3.3244,-3.3238,-3.3209,-3.3209,-3.3252,-3.325,-3.3218,-3.3297,-3.3255,-3.3262,-3.3297,-3.3309,-3.3319,-3.3318,-3.3166,0,0,0,0,0,-3.3235,-3.3258,-3.3245,-3.3291,-3.3293,-3.3275,-3.3285,-3.3267,-3.327,-3.3271,-3.3264,-3.3268,-3.3285,-3.3297,-3.3313,-3.3367,-3.3365,-3.3394,-3.3404,-3.3412,-3.3418,-3.3445,-3.3457,-3.3327,-3.3327,-3.3327,0,0,-3.3276,-3.3272,-3.3288,-3.3303,-3.3304,-3.3327,-3.3276,-3.3303,-3.332,-3.3275,-3.3311,-3.3306,-3.3308,-3.3355,-3.3375,-3.3354,-3.3454,-3.3419,-3.3426,-3.3427,-3.3452,-3.3464,-3.3475,-3.3331,-3.333,-3.3329,0,0,-3.3362,-3.3362,-3.3399,-3.34,-3.3401,-3.3388,-3.3397,-3.3391,-3.3386,-3.3422,-3.3388,-3.3407,-3.3439,-3.3441,-3.3446,-3.3531,-3.3504,-3.3537,-3.3589,-3.3616,-3.3626,-3.3635,-3.3664,-3.3674,-3.3543,-3.3544,-3.3544,0,-3.3413,-3.3446,-3.3421,-3.345,-3.3457,-3.3417,-3.3453,-3.3456,-3.3462,-3.3468,-3.3444,-3.3481,-3.348,-3.3525,-3.3546,-3.3552,-3.3561,-3.3537,-3.3626,-3.3635,-3.3643,-3.367,-3.3681,-3.3547,-3.3547,-3.3547,-3.3546,0,-3.3508,-3.3531,-3.3561,-3.3567,-3.3578,-3.3611,-3.359,-3.3603,-3.3584,-3.3574,-3.361,-3.3607,-3.362,-3.363,-3.3612,-3.3672,-3.3659,-3.3631,-3.3589,-3.366,-3.3685,-3.3695,-3.3553,-3.3552,-3.355,-3.3549,0,0,-3.3633,-3.3624,-3.3635,-3.3637,-3.3635,-3.3652,-3.3683,-3.3695,-3.3706,-3.3712,-3.3736,-3.3763,-3.3737,-3.3743,-3.3725,-3.3748,-3.3814,-3.3717,-3.3717,-3.3734,-3.3879,-3.3898,-3.3911,-3.3797,-3.3799,-3.38,-3.3878,0,-3.3715,-3.3766,-3.3744,-3.3797,-3.3817,-3.3779,-3.3805,-3.3807,-3.3797,-3.3813,-3.3803,-3.3822,-3.3787,-3.379,-3.3812,-3.3801,-3.3842,-3.3796,-3.3818,-3.3819,-3.3817,-3.3924,-3.3945,-3.4019,-3.3888,-3.3889,-3.3891,0,-3.3818,-3.3827,-3.3882,-3.3874,-3.3882,-3.3906,-3.3914,-3.393,-3.393,-3.3922,-3.3928,-3.3904,-3.3933,-3.3891,-3.3929,-3.3898,-3.3906,-3.3902,-3.3904,-3.3904,-3.3858,-3.3926,-3.4042,-3.4053,-3.3906,-3.3905,-3.3904,0,-3.3902,-3.3928,-3.3963,-3.3966,-3.3958,-3.3976,-3.3973,-3.3971,-3.3979,-3.3987,-3.3992,-3.4004,-3.401,-3.4019,-3.3999,-3.397,-3.4039,-3.3996,-3.4032,-3.4032,-3.4047,-3.4046,-3.4165,-3.4055,-3.4055,-3.4054,-3.4054,0,-3.3995,-3.403,-3.4,-3.4022,-3.4059,-3.4033,-3.4071,-3.4064,-3.4062,-3.4082,-3.405,-3.4069,-3.4042,-3.4058,-3.4042,-3.4075,-3.4079,-3.4072,-3.4067,-3.4074,-3.4075,-3.4078,-3.4071,-3.4057,-3.4057,-3.4056,-3.4056,0,-3.4095,-3.4077,-3.4113,-3.4102,-3.41,-3.4128,-3.4118,-3.4138,-3.4126,-3.4151,-3.4155,-3.4137,-3.4154,-3.4135,-3.4151,-3.414,-3.4185,-3.4173,-3.4184,-3.418,-3.4217,-3.4213,-3.434,-3.4355,-3.4237,-3.4238,-3.4239,0,-3.4155,-3.418,-3.4172,-3.4182,-3.4182,-3.4199,-3.4207,-3.4182,-3.4192,-3.4193,-3.4212,-3.4226,-3.4236,-3.4265,-3.4253,-3.4265,-3.4253,-3.4296,-3.4254,-3.426,-3.4251,-3.4249,-3.4251,-3.4305,-3.4306,-3.4307,-3.4308,0,-3.4263,-3.4252,-3.4265,-3.4274,-3.4284,-3.429,-3.4294,-3.4304,-3.4278,-3.4291,-3.4307,-3.4315,-3.4331,-3.4345,-3.4353,-3.435,-3.4325,-3.4322,-3.433,-3.4337,-3.4341,-3.4338,-3.4206,-3.4319,-3.4318,-3.4317,-3.4316,-3.4316,-3.4343,-3.4363,-3.436,-3.4374,-3.4374,-3.4378,-3.4395,-3.4385,-3.4399,-3.4409,-3.4393,-3.4414,-3.4412,-3.442,-3.442,-3.4436,-3.4417,-3.443,-3.4433,-3.4436,-3.4441,-3.434,-3.4437,-3.4437,-3.4437,-3.4437,-3.4436,0,-3.4448,-3.4443,-3.4457,-3.4462,-3.4474,-3.4449,-3.4451,-3.4462,-3.448,-3.4481,-3.4491,-3.4509,-3.4523,-3.4512,-3.4522,-3.4537,-3.4525,-3.454,-3.4538,-3.4538,-3.4458,-3.4448,-3.4549,-3.4549,-3.4549,-3.4549,-3.4549,-3.4549,-3.4503,-3.4535,-3.4524,-3.4555,-3.455,-3.457,-3.4573,-3.4576,-3.4576,-3.4598,-3.4608,-3.4601,-3.4596,-3.4606,-3.4617,-3.4614,-3.4618,-3.4638,-3.463,-3.4555,-3.4544,-3.4533,-3.4524,-3.4639,-3.4639,-3.4708,-3.4709,-3.4709]}]]